Content
SEND FEEDBACK

Daily
Averages
Monthly
Summary
United States of America

BOX ELDER, SOUTH DAKOTA


Home > North America > United States > South Dakota
Elevation: 3170 feet     Latitude: 44 09N     Longitude: 103 06W

WEATHER
 
SELECT A DAY
Number of Records: 209,070;   Date Range: 1/1/95 - 11/26/14
 
SHARE

PRINT THIS DATA

[ ← Previous Day ]
WEATHER ALMANAC - APRIL 16, 2014
[ Next Day → ]
[ °C ]   °F
Weather ElementAverageHighLow
Temperature37.8 °F45 °F (2:58 pm)31.3 °F (11:58 pm)
Dewpoint30.2 °F37.6 °F (2:58 am)24.8 °F (7:58 pm)
Humidity75.2 %93 % (2:08 am)49 % (3:58 pm)
Barometer29.93 in30.27 in (9:58 pm)29.61 in (1:58 am)
Wind Speed16.2 mph27.6 mph (7:54 am)
Wind Gust35.7 mph (7:43 am)
Weather ElementAverage
Visibility9.2 mi
Wind DirectionSW (220.5 °)

Weather ElementTotal
Precipitation---
Heating Degree Days26.9 (Base 65)
Averaged from 37 records on April 16, 2014
WEATHER CONDITIONS BREAKOUT
WIND DIRECTION BREAKOUT
WEATHER BY HOUR - APRIL 16, 2014
[ °C ]   °F
Local TimeTemperatureDewpointHumidityBarometerVisibilityWind DirectionWind SpeedGust SpeedPrecipitationEventsConditions
1:58 AM39.6 °F37.2 °F91 %29.61 in10.0 miNNW (330°)16.1 mphOvercast
2:08 AM39.2 °F37.4 °F93 %29.61 in10.0 miNNW (330°)17.3 mphOvercast
2:23 AM39.2 °F37.4 °F93 %29.61 in10.0 miNNW (330°)16.1 mphMostly Cloudy
2:53 AM41.0 °F37.4 °F87 %29.63 in10.0 miNorth (360°)16.1 mphOvercast
2:58 AM40.1 °F37.6 °F91 %29.62 in10.0 miNorth (350°)15.0 mphOvercast
3:18 AM39.2 °F37.4 °F93 %29.64 in10.0 miNorth (350°)12.7 mphOvercast
3:58 AM39.7 °F37.6 °F92 %29.64 in10.0 miNNW (340°)15.0 mphPartly Cloudy
4:58 AM41.9 °F36.9 °F82 %29.66 in10.0 miNNW (330°)24.2 mph29.9 mphOvercast
5:58 AM39.6 °F36.0 °F87 %29.71 in10.0 miNW (320°)23.0 mph31.1 mphMostly Cloudy
6:58 AM40.6 °F35.2 °F81 %29.75 in10.0 miNNW (330°)18.4 mphMostly Cloudy
7:43 AM41.0 °F33.8 °F76 %29.78 in10.0 miNNW (340°)25.3 mph35.7 mphMostly Cloudy
7:47 AM41.0 °F33.8 °F76 %29.79 in10.0 miNorth (350°)23.0 mph35.7 mphOvercast
7:54 AM41.0 °F33.8 °F76 %29.79 in6.0 miNNW (340°)27.6 mph35.7 mphRainLight Rain
8:31 AM35.6 °F32.0 °F87 %29.83 in3.0 miNNE (20°)21.9 mphSnowLight Snow
8:58 AM31.8 °F28.9 °F89 %29.90 in4.0 miNorth (10°)23.0 mph0.00 inSnowLight Snow
9:23 AM32.0 °F28.4 °F87 %29.87 in6.0 miNorth (10°)19.6 mphSnowLight Snow
9:41 AM33.8 °F26.6 °F75 %29.88 in10.0 miNorth (350°)18.4 mph24.2 mphMostly Cloudy
9:56 AM34.9 °F27.0 °F73 %29.94 in10.0 miNorth (360°)21.9 mph27.6 mph0.00 inMostly Cloudy
10:58 AM37.6 °F28.2 °F69 %29.99 in10.0 miNorth (350°)23.0 mphMostly Cloudy
11:43 AM39.2 °F28.4 °F65 %29.95 in10.0 miNorth (360°)24.2 mph29.9 mphMostly Cloudy
11:58 AM39.2 °F27.5 °F63 %30.02 in10.0 miNorth (360°)18.4 mph26.5 mphOvercast
12:58 PM41.7 °F27.0 °F56 %30.03 in10.0 miNorth (360°)17.3 mph24.2 mphMostly Cloudy
1:12 PM42.8 °F28.4 °F57 %29.98 in10.0 miNorth (350°)17.3 mph23.0 mphMostly Cloudy
1:58 PM42.4 °F27.3 °F55 %30.05 in10.0 miNNE (20°)10.4 mph18.4 mphOvercast
2:58 PM45.0 °F27.7 °F51 %30.05 in10.0 miNorth (10°)11.5 mph18.4 mphOvercast
3:58 PM44.8 °F26.4 °F49 %30.06 in10.0 miNorth (10°)9.2 mph18.4 mphOvercast
4:58 PM43.0 °F26.1 °F51 %30.07 in10.0 miNE (50°)12.7 mphOvercast
5:58 PM39.6 °F26.1 °F58 %30.13 in10.0 miENE (60°)16.1 mphMostly Cloudy
6:58 PM35.6 °F25.0 °F65 %30.16 in10.0 miEast (80°)13.8 mphMostly Cloudy
7:58 PM33.8 °F24.8 °F70 %30.19 in10.0 miEast (90°)12.7 mphOvercast
8:48 PM32.0 °F24.8 °F75 %30.15 in10.0 miEast (100°)8.1 mphOvercast
8:53 PM32.0 °F24.8 °F75 %30.15 in10.0 miEast (100°)8.1 mphOvercast
8:58 PM32.9 °F25.7 °F75 %30.25 in7.0 miEast (100°)10.4 mphOvercast
8:59 PM32.0 °F26.6 °F80 %30.15 in7.0 miEast (100°)10.4 mphSnowLight Snow
9:58 PM31.5 °F26.2 °F81 %30.27 in8.0 miSSE (160°)5.8 mph0.00 inOvercast
10:58 PM31.5 °F25.5 °F79 %30.25 in10.0 miSouth (180°)6.9 mphOvercast
11:58 PM31.3 °F25.5 °F79 %30.25 in10.0 miSouth (170°)8.1 mphOvercast
Hourly data recorded from KRCA, located miles away from Box Elder, South Dakota







STORIES FROM OUR PARTNERS